Amagi Galaxy — V7VE9 — position and weather

sailwx.info

Track history (hours):
 
Tides and Currents Weather Stations Pressure Air Temp Water Temp Dewpoint Dewpoint Depression Visibility Wind Speed Wind Dir Waves Ship Positions

Amagi Galaxy

Last reported at 2014-Nov-27 19:33 UTC. Time now 2014-Nov-27 19:36 UTC.
Position N 38°06' W 123°59'.

Length 152 m; draft 5.7 m.

Type: Ship (hazmat cat B). MMSI: 538004105.

Date/timePositionNaut miles runAvg speedWind from/ knotsBaromVisibWave heightAir tempDewpointWater temp
2014-Nov-27 19:33N 38°06' W 123°59'1413.6
2014-Nov-27 18:34N 37°57' W 123°47'1413.6
2014-Nov-27 17:33N 37°47' W 123°35'1313.4
2014-Nov-27 16:33N 37°41' W 123°20'1413.6
2014-Nov-27 15:33N 37°34' W 123°05'1413.7
2014-Nov-27 14:33N 37°42' W 122°50'1312.6
2014-Nov-27 13:33N 37°47' W 122°35'1111.3
2014-Nov-27 12:34N 37°55' W 122°25'3 2.8
2014-Nov-27 11:34N 37°55' W 122°22'0 0.0
2014-Nov-27 10:31N 37°55' W 122°22'0 0.0
2014-Nov-27 09:31N 37°55' W 122°22'0 0.0
2014-Nov-27 08:31N 37°55' W 122°22'0 0.0
2014-Nov-27 07:31N 37°55' W 122°22'0 0.0
2014-Nov-27 06:31N 37°55' W 122°22'0 0.0
2014-Nov-27 05:31N 37°55' W 122°22'0 0.0
2014-Nov-27 04:31N 37°55' W 122°22'0 0.0
2014-Nov-27 03:31N 37°55' W 122°22'0 0.0
2014-Nov-27 02:31N 37°55' W 122°22'0 0.0
2014-Nov-27 01:31N 37°55' W 122°22'0 0.0
2014-Nov-27 00:31N 37°55' W 122°22'0 0.0
2014-Nov-26 23:31N 37°55' W 122°22'0 0.1
2014-Nov-26 22:31N 37°55' W 122°22'0 0.0
2014-Nov-26 21:31N 37°55' W 122°22'0 0.0
2014-Nov-26 20:31N 37°55' W 122°22'0 0.0
2014-Nov-26 19:31N 37°55' W 122°22'0 0.0
2014-Nov-26 18:31N 37°55' W 122°22'0 0.0
2014-Nov-26 17:28N 37°55' W 122°22'0 0.0
2014-Nov-26 16:31N 37°55' W 122°22'0 0.2
2014-Nov-26 15:33N 37°55' W 122°22'4 4.3
2014-Nov-26 14:34N 37°51' W 122°25'1110.8
2014-Nov-26 13:34N 37°46' W 122°37'8 8.3
2014-Nov-26 12:34N 37°41' W 122°45'1010.3
2014-Nov-26 11:34N 37°35' W 122°56'9 9.0
2014-Nov-26 10:34N 37°30' W 123°05'10 9.9
2014-Nov-26 09:33N 37°22' W 123°13'9 8.5
2014-Nov-26 08:33N 37°15' W 123°19'1111.5
2014-Nov-26 07:33N 37°05' W 123°26'1110.6
2014-Nov-26 06:34N 36°55' W 123°27'1211.7
2014-Nov-26 05:34N 36°44' W 123°22'1211.8
2014-Nov-26 04:34N 36°33' W 123°15'1312.8
2014-Nov-26 03:33N 36°22' W 123°09'1212.4
2014-Nov-26 02:33N 36°10' W 123°02'1312.7
2014-Nov-26 01:33N 35°59' W 122°56'1312.6
2014-Nov-26 00:33N 35°47' W 122°49'1312.6
2014-Nov-25 23:33N 35°36' W 122°43'1312.7
2014-Nov-25 22:33N 35°24' W 122°36'1312.6
2014-Nov-25 21:33N 35°13' W 122°30'1312.6
2014-Nov-25 20:33N 35°01' W 122°24'1312.7
2014-Nov-25 19:33N 34°50' W 122°17'1312.5
2014-Nov-25 18:32N 34°38' W 122°10'1312.7
2014-Nov-25 17:32N 34°27' W 122°05'1612.7
2014-Nov-25 16:17N 34°12' W 121°56'1012.9
2014-Nov-25 15:32N 34°03' W 121°52'1212.4
2014-Nov-25 14:33N 33°56' W 121°40'1313.2
2014-Nov-25 13:33N 33°52' W 121°25'2013.3
2014-Nov-25 12:04N 33°44' W 121°03'5411.7
2014-Nov-25 07:28N 33°31' W 120°00'1212.1
2014-Nov-25 06:29N 33°34' W 119°46'1511.9
2014-Nov-25 05:13N 33°37' W 119°29'1111.9
2014-Nov-25 04:19N 33°40' W 119°16'4811.5
2014-Nov-25 00:10N 33°35' W 118°19'610.3
2014-Nov-24 23:33N 33°38' W 118°12'6 6.0
2014-Nov-24 22:33N 33°44' W 118°13'0 0.2
2014-Nov-24 21:32N 33°44' W 118°14'0 0.2
2014-Nov-24 20:32N 33°44' W 118°14'0 0.1
2014-Nov-24 19:32N 33°44' W 118°14'0 0.0
2014-Nov-24 18:32N 33°44' W 118°14'0 0.1
2014-Nov-24 17:32N 33°44' W 118°14'0 0.0
2014-Nov-24 16:32N 33°44' W 118°14'0 0.1
2014-Nov-24 15:32N 33°44' W 118°14'0 0.1
2014-Nov-24 14:32N 33°44' W 118°14'0 0.0
2014-Nov-24 13:32N 33°44' W 118°14'0 0.1
2014-Nov-24 12:33N 33°44' W 118°14'1 1.1
2014-Nov-24 11:33N 33°43' W 118°15'3 3.0
2014-Nov-24 10:33N 33°46' W 118°14'0 0.0
2014-Nov-24 09:32N 33°46' W 118°14'0 0.0
2014-Nov-24 08:32N 33°46' W 118°14'0 0.0
2014-Nov-24 07:32N 33°46' W 118°14'0 0.0
2014-Nov-24 06:32N 33°46' W 118°14'0 0.0
2014-Nov-24 05:29N 33°46' W 118°14'0 0.0
2014-Nov-24 04:32N 33°46' W 118°14'0 0.0
2014-Nov-24 03:32N 33°46' W 118°14'0 0.0
2014-Nov-24 02:32N 33°46' W 118°14'0 0.0
2014-Nov-24 01:32N 33°46' W 118°14'0 0.0
2014-Nov-24 00:32N 33°46' W 118°14'0 0.0
2014-Nov-23 23:32N 33°46' W 118°14'0 0.0
2014-Nov-23 22:32N 33°46' W 118°14'0 0.0
2014-Nov-23 21:32N 33°46' W 118°14'0 0.0
2014-Nov-23 20:32N 33°46' W 118°14'0 0.0
2014-Nov-23 19:29N 33°46' W 118°14'0 0.0
2014-Nov-23 18:32N 33°46' W 118°14'0 0.0
2014-Nov-23 17:32N 33°46' W 118°14'0 0.1
2014-Nov-23 16:32N 33°46' W 118°14'0 0.1
2014-Nov-23 15:32N 33°46' W 118°14'0 0.0
2014-Nov-23 14:32N 33°46' W 118°14'0 0.0
2014-Nov-23 13:33N 33°46' W 118°14'1 0.9
2014-Nov-23 12:33N 33°46' W 118°16'0 0.0
2014-Nov-23 10:27N 33°46' W 118°16'0 0.0
2014-Nov-23 09:33N 33°46' W 118°16'0 0.0
2014-Nov-23 08:33N 33°46' W 118°16'0 0.0
2014-Nov-23 07:27N 33°46' W 118°16'0 0.0
2014-Nov-23 05:15N 33°46' W 118°16'0 0.0
2014-Nov-23 01:27N 33°46' W 118°16'0 0.0
2014-Nov-23 00:33N 33°46' W 118°16'0 0.0
2014-Nov-22 23:30N 33°46' W 118°16'0 0.0
2014-Nov-22 22:30N 33°46' W 118°16'0 0.0
2014-Nov-22 21:27N 33°46' W 118°16'0 0.0
2014-Nov-22 20:33N 33°46' W 118°16'0 0.0
2014-Nov-22 19:33N 33°46' W 118°16'0 0.0
2014-Nov-22 18:30N 33°46' W 118°16'1 1.0
2014-Nov-22 17:33N 33°45' W 118°16'6 6.2
2014-Nov-22 16:33N 33°39' W 118°13'6 5.6
2014-Nov-22 15:33N 33°35' W 118°17'1010.0
2014-Nov-22 14:33N 33°36' W 118°29'1111.1
2014-Nov-22 13:33N 33°38' W 118°42'1411.3
2014-Nov-22 12:20N 33°42' W 118°58'911.6
2014-Nov-22 11:33N 33°42' W 119°09'1313.3
2014-Nov-22 10:33N 33°38' W 119°25'1413.1
2014-Nov-22 09:29N 33°35' W 119°41'1212.9
2014-Nov-22 08:33N 33°33' W 119°55'1312.3
2014-Nov-22 07:29N 33°29' W 120°11'15111.4
2014-Nov-21 18:15N 35°08' W 122°30'2313.1
2014-Nov-21 16:32N 35°28' W 122°42'1312.8
2014-Nov-21 15:32N 35°40' W 122°48'1513.0
2014-Nov-21 14:24N 35°54' W 122°56'1212.9
2014-Nov-21 13:29N 36°04' W 123°02'3712.7
2014-Nov-21 10:34N 36°37' W 123°22'1512.1
2014-Nov-21 09:17N 36°52' W 123°30'912.6
2014-Nov-21 08:33N 36°60' W 123°35'2613.0
2014-Nov-21 06:30N 37°24' W 123°50'1612.9
2014-Nov-21 05:15N 37°38' W 123°58'1312.9
2014-Nov-21 04:16N 37°50' W 124°05'2313.3
2014-Nov-21 02:31N 38°11' W 124°18'47311.1
2014-Nov-19 08:05N 45°59' W 125°40'611.7
2014-Nov-19 07:33N 46°05' W 125°39'1212.1
2014-Nov-19 06:33N 46°17' W 125°37'1212.4
2014-Nov-19 05:33N 46°30' W 125°36'1312.6
2014-Nov-19 04:33N 46°42' W 125°34'8712.5
2014-Nov-18 21:33N 48°09' W 125°21'1212.5
2014-Nov-18 20:34N 48°20' W 125°11'1312.5
2014-Nov-18 19:33N 48°31' W 125°02'1313.0
2014-Nov-18 18:34N 48°30' W 124°42'1313.0
2014-Nov-18 17:33N 48°25' W 124°24'1313.3
2014-Nov-18 16:33N 48°20' W 124°06'1312.7
2014-Nov-18 15:33N 48°17' W 123°47'9 8.7
2014-Nov-18 14:34N 48°16' W 123°34'9 8.7
2014-Nov-18 13:32N 48°22' W 123°25'9 9.6
2014-Nov-18 12:33N 48°27' W 123°12'1515.4
2014-Nov-18 11:34N 48°42' W 123°15'1211.8
2014-Nov-18 10:33N 48°51' W 123°03'1514.8
2014-Nov-18 09:33N 49°01' W 123°19'1313.3
2014-Nov-18 08:33N 49°14' W 123°21'1010.4
2014-Nov-18 07:33N 49°18' W 123°06'2 1.6
2014-Nov-18 06:33N 49°17' W 123°04'0 0.0
2014-Nov-18 05:33N 49°17' W 123°04'0 0.0
2014-Nov-18 04:33N 49°17' W 123°04'0 0.0
2014-Nov-18 03:33N 49°17' W 123°04'0 0.0
2014-Nov-18 02:33N 49°17' W 123°04'0 0.0
2014-Nov-18 01:33N 49°17' W 123°04'0 0.0
2014-Nov-18 00:33N 49°17' W 123°04'0 0.0
2014-Nov-17 23:33N 49°17' W 123°04'0 0.0
2014-Nov-17 22:33N 49°17' W 123°04'0 0.0
2014-Nov-17 21:33N 49°17' W 123°04'0 0.0
2014-Nov-17 20:33N 49°17' W 123°04'  
Track history (hours):
 
Tides and Currents Weather Stations Pressure Air Temp Water Temp Dewpoint Dewpoint Depression Visibility Wind Speed Wind Dir Waves Ship Positions

Amagi Galaxy

Last reported at 2014-Nov-27 19:33 UTC. Time now 2014-Nov-27 19:36 UTC.
Position N 38°06' W 123°59'.

Length 152 m; draft 5.7 m.

Type: Ship (hazmat cat B). MMSI: 538004105.

Date/timePositionNaut miles runAvg speedWind from/ knotsBaromVisibWave heightAir tempDewpointWater temp
2014-Nov-27 19:33N 38°06' W 123°59'1413.6
2014-Nov-27 18:34N 37°57' W 123°47'1413.6
2014-Nov-27 17:33N 37°47' W 123°35'1313.4
2014-Nov-27 16:33N 37°41' W 123°20'1413.6
2014-Nov-27 15:33N 37°34' W 123°05'1413.7
2014-Nov-27 14:33N 37°42' W 122°50'1312.6
2014-Nov-27 13:33N 37°47' W 122°35'1111.3
2014-Nov-27 12:34N 37°55' W 122°25'3 2.8
2014-Nov-27 11:34N 37°55' W 122°22'0 0.0
2014-Nov-27 10:31N 37°55' W 122°22'0 0.0
2014-Nov-27 09:31N 37°55' W 122°22'0 0.0
2014-Nov-27 08:31N 37°55' W 122°22'0 0.0
2014-Nov-27 07:31N 37°55' W 122°22'0 0.0
2014-Nov-27 06:31N 37°55' W 122°22'0 0.0
2014-Nov-27 05:31N 37°55' W 122°22'0 0.0
2014-Nov-27 04:31N 37°55' W 122°22'0 0.0
2014-Nov-27 03:31N 37°55' W 122°22'0 0.0
2014-Nov-27 02:31N 37°55' W 122°22'0 0.0
2014-Nov-27 01:31N 37°55' W 122°22'0 0.0
2014-Nov-27 00:31N 37°55' W 122°22'0 0.0
2014-Nov-26 23:31N 37°55' W 122°22'0 0.1
2014-Nov-26 22:31N 37°55' W 122°22'0 0.0
2014-Nov-26 21:31N 37°55' W 122°22'0 0.0
2014-Nov-26 20:31N 37°55' W 122°22'0 0.0
2014-Nov-26 19:31N 37°55' W 122°22'0 0.0
2014-Nov-26 18:31N 37°55' W 122°22'0 0.0
2014-Nov-26 17:28N 37°55' W 122°22'0 0.0
2014-Nov-26 16:31N 37°55' W 122°22'0 0.2
2014-Nov-26 15:33N 37°55' W 122°22'4 4.3
2014-Nov-26 14:34N 37°51' W 122°25'1110.8
2014-Nov-26 13:34N 37°46' W 122°37'8 8.3
2014-Nov-26 12:34N 37°41' W 122°45'1010.3
2014-Nov-26 11:34N 37°35' W 122°56'9 9.0
2014-Nov-26 10:34N 37°30' W 123°05'10 9.9
2014-Nov-26 09:33N 37°22' W 123°13'9 8.5
2014-Nov-26 08:33N 37°15' W 123°19'1111.5
2014-Nov-26 07:33N 37°05' W 123°26'1110.6
2014-Nov-26 06:34N 36°55' W 123°27'1211.7
2014-Nov-26 05:34N 36°44' W 123°22'1211.8
2014-Nov-26 04:34N 36°33' W 123°15'1312.8
2014-Nov-26 03:33N 36°22' W 123°09'1212.4
2014-Nov-26 02:33N 36°10' W 123°02'1312.7
2014-Nov-26 01:33N 35°59' W 122°56'1312.6
2014-Nov-26 00:33N 35°47' W 122°49'1312.6
2014-Nov-25 23:33N 35°36' W 122°43'1312.7
2014-Nov-25 22:33N 35°24' W 122°36'1312.6
2014-Nov-25 21:33N 35°13' W 122°30'1312.6
2014-Nov-25 20:33N 35°01' W 122°24'1312.7
2014-Nov-25 19:33N 34°50' W 122°17'1312.5
2014-Nov-25 18:32N 34°38' W 122°10'1312.7
2014-Nov-25 17:32N 34°27' W 122°05'1612.7
2014-Nov-25 16:17N 34°12' W 121°56'1012.9
2014-Nov-25 15:32N 34°03' W 121°52'1212.4
2014-Nov-25 14:33N 33°56' W 121°40'1313.2
2014-Nov-25 13:33N 33°52' W 121°25'2013.3
2014-Nov-25 12:04N 33°44' W 121°03'5411.7
2014-Nov-25 07:28N 33°31' W 120°00'1212.1
2014-Nov-25 06:29N 33°34' W 119°46'1511.9
2014-Nov-25 05:13N 33°37' W 119°29'1111.9
2014-Nov-25 04:19N 33°40' W 119°16'4811.5
2014-Nov-25 00:10N 33°35' W 118°19'610.3
2014-Nov-24 23:33N 33°38' W 118°12'6 6.0
2014-Nov-24 22:33N 33°44' W 118°13'0 0.2
2014-Nov-24 21:32N 33°44' W 118°14'0 0.2
2014-Nov-24 20:32N 33°44' W 118°14'0 0.1
2014-Nov-24 19:32N 33°44' W 118°14'0 0.0
2014-Nov-24 18:32N 33°44' W 118°14'0 0.1
2014-Nov-24 17:32N 33°44' W 118°14'0 0.0
2014-Nov-24 16:32N 33°44' W 118°14'0 0.1
2014-Nov-24 15:32N 33°44' W 118°14'0 0.1
2014-Nov-24 14:32N 33°44' W 118°14'0 0.0
2014-Nov-24 13:32N 33°44' W 118°14'0 0.1
2014-Nov-24 12:33N 33°44' W 118°14'1 1.1
2014-Nov-24 11:33N 33°43' W 118°15'3 3.0
2014-Nov-24 10:33N 33°46' W 118°14'0 0.0
2014-Nov-24 09:32N 33°46' W 118°14'0 0.0
2014-Nov-24 08:32N 33°46' W 118°14'0 0.0
2014-Nov-24 07:32N 33°46' W 118°14'0 0.0
2014-Nov-24 06:32N 33°46' W 118°14'0 0.0
2014-Nov-24 05:29N 33°46' W 118°14'0 0.0
2014-Nov-24 04:32N 33°46' W 118°14'0 0.0
2014-Nov-24 03:32N 33°46' W 118°14'0 0.0
2014-Nov-24 02:32N 33°46' W 118°14'0 0.0
2014-Nov-24 01:32N 33°46' W 118°14'0 0.0
2014-Nov-24 00:32N 33°46' W 118°14'0 0.0
2014-Nov-23 23:32N 33°46' W 118°14'0 0.0
2014-Nov-23 22:32N 33°46' W 118°14'0 0.0
2014-Nov-23 21:32N 33°46' W 118°14'0 0.0
2014-Nov-23 20:32N 33°46' W 118°14'0 0.0
2014-Nov-23 19:29N 33°46' W 118°14'0 0.0
2014-Nov-23 18:32N 33°46' W 118°14'0 0.0
2014-Nov-23 17:32N 33°46' W 118°14'0 0.1
2014-Nov-23 16:32N 33°46' W 118°14'0 0.1
2014-Nov-23 15:32N 33°46' W 118°14'0 0.0
2014-Nov-23 14:32N 33°46' W 118°14'0 0.0
2014-Nov-23 13:33N 33°46' W 118°14'1 0.9
2014-Nov-23 12:33N 33°46' W 118°16'0 0.0
2014-Nov-23 10:27N 33°46' W 118°16'0 0.0
2014-Nov-23 09:33N 33°46' W 118°16'0 0.0
2014-Nov-23 08:33N 33°46' W 118°16'0 0.0
2014-Nov-23 07:27N 33°46' W 118°16'0 0.0
2014-Nov-23 05:15N 33°46' W 118°16'0 0.0
2014-Nov-23 01:27N 33°46' W 118°16'0 0.0
2014-Nov-23 00:33N 33°46' W 118°16'0 0.0
2014-Nov-22 23:30N 33°46' W 118°16'0 0.0
2014-Nov-22 22:30N 33°46' W 118°16'0 0.0
2014-Nov-22 21:27N 33°46' W 118°16'0 0.0
2014-Nov-22 20:33N 33°46' W 118°16'0 0.0
2014-Nov-22 19:33N 33°46' W 118°16'0 0.0
2014-Nov-22 18:30N 33°46' W 118°16'1 1.0
2014-Nov-22 17:33N 33°45' W 118°16'6 6.2
2014-Nov-22 16:33N 33°39' W 118°13'6 5.6
2014-Nov-22 15:33N 33°35' W 118°17'1010.0
2014-Nov-22 14:33N 33°36' W 118°29'1111.1
2014-Nov-22 13:33N 33°38' W 118°42'1411.3
2014-Nov-22 12:20N 33°42' W 118°58'911.6
2014-Nov-22 11:33N 33°42' W 119°09'1313.3
2014-Nov-22 10:33N 33°38' W 119°25'1413.1
2014-Nov-22 09:29N 33°35' W 119°41'1212.9
2014-Nov-22 08:33N 33°33' W 119°55'1312.3
2014-Nov-22 07:29N 33°29' W 120°11'15111.4
2014-Nov-21 18:15N 35°08' W 122°30'2313.1
2014-Nov-21 16:32N 35°28' W 122°42'1312.8
2014-Nov-21 15:32N 35°40' W 122°48'1513.0
2014-Nov-21 14:24N 35°54' W 122°56'1212.9
2014-Nov-21 13:29N 36°04' W 123°02'3712.7
2014-Nov-21 10:34N 36°37' W 123°22'1512.1
2014-Nov-21 09:17N 36°52' W 123°30'912.6
2014-Nov-21 08:33N 36°60' W 123°35'2613.0
2014-Nov-21 06:30N 37°24' W 123°50'1612.9
2014-Nov-21 05:15N 37°38' W 123°58'1312.9
2014-Nov-21 04:16N 37°50' W 124°05'2313.3
2014-Nov-21 02:31N 38°11' W 124°18'47311.1
2014-Nov-19 08:05N 45°59' W 125°40'611.7
2014-Nov-19 07:33N 46°05' W 125°39'1212.1
2014-Nov-19 06:33N 46°17' W 125°37'1212.4
2014-Nov-19 05:33N 46°30' W 125°36'1312.6
2014-Nov-19 04:33N 46°42' W 125°34'8712.5
2014-Nov-18 21:33N 48°09' W 125°21'1212.5
2014-Nov-18 20:34N 48°20' W 125°11'1312.5
2014-Nov-18 19:33N 48°31' W 125°02'1313.0
2014-Nov-18 18:34N 48°30' W 124°42'1313.0
2014-Nov-18 17:33N 48°25' W 124°24'1313.3
2014-Nov-18 16:33N 48°20' W 124°06'1312.7
2014-Nov-18 15:33N 48°17' W 123°47'9 8.7
2014-Nov-18 14:34N 48°16' W 123°34'9 8.7
2014-Nov-18 13:32N 48°22' W 123°25'9 9.6
2014-Nov-18 12:33N 48°27' W 123°12'1515.4
2014-Nov-18 11:34N 48°42' W 123°15'1211.8
2014-Nov-18 10:33N 48°51' W 123°03'1514.8
2014-Nov-18 09:33N 49°01' W 123°19'1313.3
2014-Nov-18 08:33N 49°14' W 123°21'1010.4
2014-Nov-18 07:33N 49°18' W 123°06'2 1.6
2014-Nov-18 06:33N 49°17' W 123°04'0 0.0
2014-Nov-18 05:33N 49°17' W 123°04'0 0.0
2014-Nov-18 04:33N 49°17' W 123°04'0 0.0
2014-Nov-18 03:33N 49°17' W 123°04'0 0.0
2014-Nov-18 02:33N 49°17' W 123°04'0 0.0
2014-Nov-18 01:33N 49°17' W 123°04'0 0.0
2014-Nov-18 00:33N 49°17' W 123°04'0 0.0
2014-Nov-17 23:33N 49°17' W 123°04'0 0.0
2014-Nov-17 22:33N 49°17' W 123°04'0 0.0
2014-Nov-17 21:33N 49°17' W 123°04'0 0.0
2014-Nov-17 20:33N 49°17' W 123°04'  

Dump ship's entire track history